[[{"header":{"parameterUnit":"m.s-1","parameterCategory":1,"la1":30.2991,"la2":30.254,"lo1":-89.0895,"lo2":-89.0444,"dy":0.0017,"dx":0.0017,"nx":28,"ny":28,"refTime":"2024-09-01T09:00:00:Z","depth":0,"parameterNumber":2,"parameterNumberName":"U-component_of_WINDS"},"data":[0,0,0,0,0,0,0,0,0,0,0,0,0,0,0,0,0,0,0,0,0,0,0,0,0,0,0,0,0,0,0,0,0,0,0,0,0,0,0,0,0,0,0,0,0,0,0,0,0,0,0,0,0,0,0,0,0,0,-0.0359,-0.0362,0,-0.0699,-0.0703,-0.0707,-0.0869,-0.0869,-0.0869,-0.0869,-0.1228,-0.1238,-0.1247,0,0,0,0,0,0,0,0,0,0,0,0,0,0.0143,0.0134,-0.0358,-0.0363,-0.0367,-0.0699,-0.0703,-0.0708,-0.0869,-0.0869,-0.0869,-0.0869,-0.1225,-0.1236,-0.1248,0,0,0,0,0,0,0,0,0,0,0,0,0,-0.0124,0.0132,-0.0358,-0.0487,-0.0502,-0.0698,-0.0704,-0.0709,-0.0869,-0.0869,-0.0869,-0.0869,-0.1221,-0.1235,-0.125,-0.1346,0,0,-0.1294,-0.1301,0,0,0,0,0,0,0,0,-0.0109,-0.0143,-0.0464,-0.0478,-0.0496,-0.0741,-0.0659,-0.0923,-0.0869,-0.073,-0.0869,-0.0868,-0.1067,-0.1094,-0.1159,-0.1363,-0.1378,-0.1296,-0.1305,-0.1311,-0.1315,0,0,0,0,0,0,0,-0.009,-0.0129,-0.0494,-0.0468,-0.0488,-0.0532,-0.0569,-0.071,-0.0897,-0.0742,-0.0755,-0.0792,-0.1076,-0.1145,-0.1169,-0.1383,-0.1295,-0.1308,-0.1317,-0.1323,-0.1684,-0.1685,0,0,0,0,0,0,-0.0049,-0.0112,-0.0483,-0.0504,-0.0297,-0.0541,-0.0583,-0.0663,-0.0895,-0.093,-0.0792,-0.0799,-0.112,-0.1152,-0.1182,-0.1311,-0.1311,-0.1324,-0.1333,-0.1683,-0.1684,-0.1685,0,0,0,0,0,0,-0.0038,-0.0081,-0.0469,-0.0312,-0.0364,-0.0549,-0.0638,-0.067,-0.0739,-0.0933,-0.0968,-0.0828,-0.1121,-0.1162,-0.1303,-0.1326,-0.1331,-0.1344,-0.1682,-0.1683,-0.1684,-0.1567,0,0,0,0,0,0,-0.0023,-0.0076,-0.0112,-0.0311,-0.0372,-0.0581,-0.064,-0.0677,-0.0762,-0.0774,-0.0976,-0.1009,-0.1124,-0.1281,-0.1318,-0.1346,-0.1356,-0.1681,-0.1683,-0.1684,-0.157,-0.1564,-0.156,0,0,0,0,0,-0.0004,-0.0067,-0.0113,-0.0157,-0.042,-0.0582,-0.0618,-0.0746,-0.0763,-0.0803,-0.0928,-0.1002,-0.1316,-0.1294,-0.1337,-0.137,-0.168,-0.1682,-0.1684,-0.1573,-0.1566,-0.156,0,0,0,0,0,0,0.013,-0.0096,-0.0149,-0.0277,-0.0409,-0.0609,-0.0663,-0.0734,-0.0866,-0.0872,-0.1029,-0.1073,-0.1201,-0.13,-0.127,-0.1475,-0.1506,-0.1516,-0.1406,-0.1401,-0.1396,-0.137,-0.1368,0,0,0,0,0,0.0146,0.0037,-0.0157,-0.0252,-0.0314,-0.0476,-0.0552,-0.0639,-0.0783,-0.084,-0.0976,-0.1115,-0.1246,-0.1329,-0.146,-0.1585,-0.1632,-0.1629,-0.1623,-0.1618,-0.1626,-0.1701,-0.1702,-0.1691,-0.1691,-0.1691,0,0,0.0174,0.0038,-0.0022,-0.0228,-0.034,-0.0453,-0.0523,-0.0639,-0.0725,-0.086,-0.1001,-0.1104,-0.1271,-0.1405,-0.1471,-0.1491,-0.1639,-0.162,-0.1614,-0.1626,-0.1703,-0.1703,-0.1704,-0.1692,-0.1692,-0.1692,0,0,0.017,0.0057,-0.0035,-0.0145,-0.0312,-0.0419,-0.0441,-0.063,-0.0703,-0.0847,-0.095,-0.1056,-0.1277,-0.1392,-0.1479,-0.1524,-0.1599,-0.1563,-0.1536,-0.1607,-0.1608,-0.161,-0.1628,-0.1632,-0.157,-0.157,-0.1569,0,0.0226,0.0056,-0.0074,-0.0184,-0.0272,-0.0395,-0.0491,-0.0593,-0.0795,-0.0855,-0.0874,-0.1153,-0.1274,-0.1437,-0.1447,-0.1513,-0.1546,-0.1542,-0.1597,-0.16,-0.1603,-0.1622,-0.1628,-0.1564,-0.1565,-0.1565,-0.1566,0,0.0133,0.0016,-0.0038,-0.0226,-0.0321,-0.0423,-0.0572,-0.0653,-0.0731,-0.0837,-0.0982,-0.1131,-0.1294,-0.1339,-0.1418,-0.1513,-0.1521,-0.1566,-0.16,-0.1596,-0.1617,-0.1625,-0.1556,-0.1558,-0.156,-0.1561,0,0,0.0201,-0.0055,-0.0074,-0.0161,-0.0354,-0.0448,-0.0557,-0.0712,-0.0779,-0.0915,-0.1012,-0.1195,-0.1238,-0.1336,-0.1429,-0.1491,-0.1519,-0.153,-0.1536,-0.1524,-0.1636,-0.1601,-0.1607,-0.1569,-0.1571,-0.1572,-0.1622,0,0.0169,-0.0028,-0.0148,-0.0297,-0.0408,-0.0525,-0.062,-0.075,-0.0852,-0.0963,-0.1077,-0.1204,-0.125,-0.1311,-0.1377,-0.1501,-0.1544,-0.15,-0.1664,-0.1668,-0.162,-0.1618,-0.1583,-0.1623,-0.1631,-0.1632,-0.1633,0,0.0104,-0.0024,-0.0183,-0.0363,-0.0414,-0.0497,-0.0649,-0.0753,-0.0904,-0.0974,-0.1082,-0.1175,-0.1298,-0.1319,-0.1492,-0.1458,-0.1533,-0.1604,-0.1609,-0.1631,-0.1652,-0.1642,-0.1639,-0.1645,-0.1647,-0.1646,-0.1645,0,0.0169,-0.0045,-0.0167,-0.0238,-0.0451,-0.0506,-0.0598,-0.0749,-0.0834,-0.0969,-0.1027,-0.1174,-0.1256,-0.1369,-0.1501,-0.1504,-0.1661,-0.1693,-0.1725,-0.1721,-0.1755,-0.1751,-0.1765,-0.1798,-0.1798,-0.1798,-0.1798,0,0.0144,0.005,-0.0141,-0.0217,-0.0325,-0.0463,-0.0568,-0.067,-0.0803,-0.0903,-0.1014,-0.1106,-0.1273,-0.1387,-0.1491,-0.1619,-0.1655,-0.1717,-0.1744,-0.1708,-0.17,-0.176,-0.1762,-0.18,-0.18,-0.1799,-0.1799,0,0.0196,0.0065,-0.0077,-0.0265,-0.0315,-0.0387,-0.055,-0.063,-0.0736,-0.0861,-0.0899,-0.1067,-0.1207,-0.1348,-0.1537,-0.1607,-0.1733,-0.1769,-0.1681,-0.1696,-0.1721,-0.1717,-0.1775,-0.1791,-0.1811,-0.181,-0.181,0,0.0188,0.0114,-0.008,-0.0153,-0.0241,-0.0358,-0.0445,-0.0584,-0.0671,-0.0848,-0.0907,-0.1053,-0.1178,-0.1396,-0.1538,-0.1683,-0.1725,-0.1735,-0.1748,-0.1709,-0.1727,-0.1722,-0.1731,-0.173,-0.1729,-0.1729,-0.1728,0,0.0188,0.0127,0.0008,-0.0134,-0.0234,-0.0354,-0.0478,-0.0532,-0.0696,-0.0789,-0.093,-0.1027,-0.1218,-0.1364,-0.1525,-0.1624,-0.1705,-0.1722,-0.1738,-0.1703,-0.165,-0.1681,-0.1669,-0.1721,-0.1722,-0.1722,-0.1723,-0.1723,0.0207,0.0137,-0.0011,-0.0141,-0.0247,-0.036,-0.0444,-0.0559,-0.0678,-0.0843,-0.0918,-0.1061,-0.1212,-0.1437,-0.1533,-0.1649,-0.1671,-0.1693,-0.1699,-0.1703,-0.1695,-0.1628,-0.1679,-0.168,-0.168,-0.168,-0.1681,0,0.02,0.01,-0.0017,-0.0185,-0.0287,-0.0349,-0.0489,-0.0572,-0.0695,-0.0826,-0.0946,-0.1109,-0.1251,-0.1401,-0.1552,-0.1616,-0.1657,-0.1651,-0.165,-0.1671,-0.1666,-0.1638,-0.1616,-0.1616,-0.1616,-0.1616,-0.1616,-0.1616,0.0184,0.006,-0.0018,-0.0197,-0.0298,-0.0435,-0.051,-0.0616,-0.0722,-0.0898,-0.1014,-0.111,-0.1251,-0.1412,-0.1545,-0.1587,-0.1638,-0.1622,-0.1674,-0.1667,-0.1672,-0.1676,-0.1651,-0.1631,-0.1631,-0.167,-0.167,-0.1671]},{"header":{"parameterUnit":"m.s-1","parameterCategory":1,"la1":30.2991,"la2":30.254,"lo1":-89.0895,"lo2":-89.0444,"dy":0.0017,"dx":0.0017,"nx":28,"ny":28,"refTime":"2024-09-01T09:00:00:Z","depth":0,"parameterNumber":3,"parameterNumberName":"V-component_of_WINDS"},"data":[0,0,0,0,0,0,0,0,0,0,0,0,0,0,0,0,0,0,0,0,0,0,0,0,0,0,0,0,0,0,0,0,0,0,0,0,0,0,0,0,0,0,0,0,0,0,0,0,0,0,0,0,0,0,0,0,0,0,0.2014,0.2014,0,0.207,0.207,0.2071,0.2104,0.2104,0.2104,0.2104,0.2161,0.2163,0.2164,0,0,0,0,0,0,0,0,0,0,0,0,0,0.1933,0.1935,0.2014,0.2015,0.2015,0.207,0.207,0.2071,0.2104,0.2104,0.2104,0.2105,0.2161,0.2162,0.2164,0,0,0,0,0,0,0,0,0,0,0,0,0,0.1977,0.1935,0.2014,0.2038,0.2041,0.207,0.207,0.2071,0.2104,0.2104,0.2104,0.2105,0.216,0.2162,0.2164,0.2173,0,0,0.2171,0.2171,0,0,0,0,0,0,0,0,0.1974,0.198,0.2034,0.2037,0.204,0.208,0.2063,0.2105,0.2104,0.208,0.2104,0.2105,0.2134,0.2138,0.2148,0.2175,0.2178,0.2171,0.2172,0.2173,0.2174,0,0,0,0,0,0,0,0.1971,0.1977,0.2036,0.2035,0.2038,0.2046,0.2052,0.2071,0.2105,0.2082,0.2085,0.2091,0.2136,0.2146,0.215,0.2179,0.2171,0.2173,0.2174,0.2175,0.2213,0.2213,0,0,0,0,0,0,0.1964,0.1975,0.2034,0.2038,0.2007,0.2047,0.2054,0.2067,0.2105,0.2111,0.2091,0.2092,0.2143,0.2147,0.2152,0.2164,0.2173,0.2175,0.2176,0.2213,0.2213,0.2213,0,0,0,0,0,0,0.1962,0.1969,0.2032,0.2007,0.2015,0.2048,0.2062,0.2068,0.2079,0.2111,0.2118,0.2095,0.2143,0.2149,0.2167,0.2166,0.2176,0.2178,0.2214,0.2213,0.2213,0.2187,0,0,0,0,0,0,0.196,0.1969,0.1973,0.2007,0.2017,0.2047,0.2062,0.2069,0.2082,0.2085,0.2118,0.2123,0.2144,0.2164,0.2169,0.2169,0.2179,0.2214,0.2214,0.2213,0.2189,0.2186,0.2184,0,0,0,0,0,0.1957,0.1964,0.1973,0.198,0.2023,0.2047,0.2052,0.2076,0.2082,0.2086,0.2107,0.2122,0.2165,0.2165,0.2172,0.2172,0.2214,0.2214,0.2213,0.2189,0.2187,0.2184,0,0,0,0,0,0,0.193,0.1969,0.1979,0.1997,0.2018,0.2052,0.2059,0.2072,0.2092,0.2094,0.2122,0.2129,0.2144,0.216,0.2159,0.2181,0.2191,0.2192,0.2171,0.2168,0.2166,0.2163,0.2181,0,0,0,0,0,0.1926,0.1942,0.1975,0.1988,0.1998,0.2026,0.2037,0.2053,0.2076,0.2085,0.2107,0.2129,0.2147,0.2158,0.2177,0.219,0.2197,0.2193,0.2191,0.2189,0.219,0.2197,0.2195,0.2211,0.2211,0.2211,0,0,0.1918,0.1941,0.195,0.1983,0.2001,0.2017,0.2033,0.205,0.2062,0.2088,0.2106,0.2122,0.2148,0.2163,0.2171,0.2177,0.2187,0.2189,0.2187,0.2189,0.2196,0.2195,0.2193,0.2211,0.2211,0.2211,0,0,0.1912,0.1931,0.1943,0.1961,0.1987,0.2006,0.2008,0.2039,0.2051,0.207,0.2089,0.2103,0.2134,0.2151,0.2163,0.216,0.2174,0.2165,0.2154,0.216,0.2159,0.2158,0.2157,0.2156,0.2165,0.2165,0.2165,0,0.1899,0.1924,0.1948,0.1963,0.1976,0.1999,0.2011,0.2026,0.2058,0.2066,0.2072,0.2109,0.2128,0.2147,0.2146,0.2155,0.2158,0.2162,0.2157,0.2157,0.2156,0.2155,0.2154,0.2163,0.2164,0.2164,0.2164,0,0.1906,0.1923,0.1929,0.1959,0.1972,0.1985,0.201,0.2021,0.2034,0.2052,0.2069,0.2092,0.2114,0.212,0.2134,0.214,0.2142,0.2152,0.2163,0.2153,0.2152,0.2152,0.2162,0.2162,0.2162,0.2163,0,0,0.1888,0.1927,0.1929,0.1942,0.1972,0.1985,0.1998,0.202,0.2028,0.2048,0.2059,0.2083,0.2092,0.2106,0.2122,0.2127,0.2122,0.2136,0.2137,0.2133,0.2129,0.2122,0.2121,0.213,0.213,0.213,0.2126,0,0.1886,0.1912,0.1932,0.1949,0.1964,0.1985,0.1996,0.2015,0.203,0.2045,0.2061,0.2078,0.2088,0.2097,0.2103,0.2121,0.2121,0.2121,0.2141,0.2141,0.2135,0.2121,0.2114,0.2109,0.2126,0.2126,0.2126,0,0.1889,0.1907,0.1926,0.1952,0.1959,0.1969,0.199,0.2003,0.2024,0.2035,0.2049,0.2064,0.2078,0.2085,0.2104,0.2103,0.2112,0.2121,0.2122,0.2126,0.2134,0.2124,0.2108,0.2108,0.2126,0.2126,0.2126,0,0.1873,0.1902,0.1917,0.1927,0.1958,0.1964,0.1977,0.1999,0.201,0.2027,0.2034,0.2053,0.2063,0.2077,0.2096,0.21,0.2112,0.2121,0.2121,0.212,0.2124,0.2124,0.211,0.2128,0.2128,0.2128,0.2128,0,0.187,0.1881,0.191,0.1919,0.1931,0.1953,0.1964,0.1979,0.1997,0.2008,0.2026,0.2037,0.2062,0.2074,0.2089,0.2102,0.2106,0.2115,0.2119,0.2114,0.2113,0.2121,0.2122,0.2128,0.2128,0.2128,0.2128,0,0.1855,0.1875,0.1893,0.192,0.1927,0.1934,0.1957,0.1966,0.1981,0.1996,0.2,0.2024,0.204,0.206,0.2082,0.2092,0.2103,0.2109,0.2096,0.2099,0.2097,0.2097,0.2089,0.2088,0.2105,0.2105,0.2105,0,0.1853,0.1861,0.1888,0.1897,0.191,0.1924,0.1935,0.1956,0.1967,0.1989,0.1995,0.2012,0.2027,0.2051,0.207,0.2086,0.2093,0.2089,0.2096,0.209,0.2093,0.2093,0.2094,0.2088,0.2087,0.2087,0.2087,0,0.1845,0.1854,0.187,0.1888,0.19,0.1916,0.1932,0.1938,0.1962,0.1972,0.1988,0.2,0.2021,0.2038,0.2056,0.2069,0.2082,0.2084,0.2085,0.2081,0.2073,0.2077,0.2092,0.2085,0.2085,0.2085,0.2085,0.2085,0.1837,0.1845,0.1865,0.1881,0.1895,0.1909,0.1918,0.1934,0.1948,0.1967,0.1978,0.1994,0.2012,0.2038,0.2049,0.2061,0.2066,0.2067,0.2068,0.2068,0.2066,0.207,0.2064,0.2064,0.2064,0.2064,0.2065,0,0.1831,0.1844,0.1859,0.188,0.1892,0.1902,0.1919,0.1929,0.1942,0.1958,0.1972,0.1989,0.2004,0.2023,0.2039,0.2045,0.2051,0.2048,0.2049,0.2051,0.2061,0.2059,0.2043,0.2043,0.2043,0.2043,0.2043,0.2043,0.183,0.1843,0.1854,0.1874,0.1887,0.1902,0.1911,0.1924,0.1936,0.1955,0.1968,0.198,0.1996,0.2013,0.2027,0.2032,0.2037,0.2033,0.204,0.2049,0.2051,0.2053,0.2051,0.2034,0.2034,0.203,0.203,0.203]}]]